Flag for Japan Weather past 2 weeks in Fukuoka, Japan

Now
73 °F

Sunny.


Feels Like: 77 °F
Forecast: 66 / 81 °F
Wind: 1 mph from North

Location: Fukuoka Airport

Current Time: May 28, 2015 at 9:43:22 AM

Latest Report: May 28, 2015 at 9:00 AM


Visibility: 10 mi

Pressure: 29.83 "Hg

Humidity: 53%

Dew point: 55 °F

Location of FukuokaLocation

Historic Weather in Fukuoka — Graph

°F

Fukuoka temperature yesterday

Maximum temperature yesterday: 86 °F (at 11:00 AM)
Minimum temperature yesterday: 63 °F (at 4:00 AM)
Average temperature yesterday: 74 °F

Past Weeks' High & Low Weather Summary

 TemperatureHumidityPressure
High86 °F (May 27, 11:00 AM)100% (May 16, 1:30 AM)30.01 "Hg (May 16, 1:30 AM)
Low55 °F (May 21, 4:00 AM)20% (May 13, 3:30 PM)29.50 "Hg (May 18, 5:30 PM)
Average70 °F65%29.81 "Hg
* Reported May 13 8:00 AM — May 28 8:30 AM, Fukuoka, Weather by CustomWeather, © 2015

Note: Actual official high and low records may vary slightly from our data, if they occured in-between our weather recording intervals... More about our weather records

Advertising

Fukuoka weather history for previous 24 hours

 ConditionsComfort  
Time TempWeatherWind HumidityBarometerVisibility
8:30 AM
Thu, May 28
72 °FSunny.2 mph53%29.83 "Hg10 mi
8:00 AM70 °FSunny.2 mph60%29.80 "Hg10 mi
7:30 AM70 °FSunny.2 mph57%29.80 "Hg10 mi
7:00 AM68 °FSunny.3 mph64%29.80 "Hg10 mi
6:30 AM70 °FSunny.3 mph57%29.77 "Hg10 mi
6:00 AM68 °FSunny.1 mph60%29.77 "Hg10 mi
5:30 AM68 °FSunny.No wind60%29.77 "Hg10 mi
5:00 AM68 °FClear.1 mph60%29.77 "Hg10 mi
4:30 AM70 °FClear.1 mph53%29.77 "Hg10 mi
4:00 AM68 °FClear.2 mph56%29.77 "Hg10 mi
3:30 AM66 °FClear.3 mph60%29.77 "Hg10 mi
3:00 AM68 °FClear.5 mph56%29.77 "Hg10 mi
2:30 AM68 °FClear.2 mph60%29.77 "Hg10 mi
2:00 AM68 °FPassing clouds.3 mph56%29.77 "HgN/A
1:30 AM68 °FClear.3 mph56%29.77 "Hg10 mi
1:00 AM68 °FClear.2 mph60%29.80 "Hg10 mi
12:30 AM68 °FClear.1 mph56%29.80 "Hg10 mi
12:00 AM70 °FClear.2 mph53%29.80 "Hg10 mi
11:30 PM
Wed, May 27
70 °FPassing clouds.3 mph57%29.80 "HgN/A
11:00 PM70 °FClear.3 mph57%29.80 "Hg10 mi
10:30 PM72 °FClear.3 mph57%29.80 "Hg10 mi
10:00 PM72 °FClear.3 mph57%29.80 "Hg10 mi
9:30 PM72 °FPassing clouds.3 mph57%29.80 "HgN/A
9:00 PM73 °FClear.2 mph44%29.80 "Hg10 mi
8:30 PM75 °FPassing clouds.3 mph39%29.80 "HgN/A
8:00 PM75 °FPassing clouds.5 mph44%29.80 "HgN/A
7:30 PM75 °FPassing clouds.6 mph44%29.80 "HgN/A
7:00 PM77 °FSunny.7 mph39%29.80 "Hg10 mi
6:30 PM77 °FSunny.8 mph39%29.80 "Hg10 mi
6:00 PM79 °FSunny.9 mph39%29.80 "Hg10 mi
5:30 PM81 °FPartly sunny.9 mph34%29.80 "HgN/A
5:00 PM81 °FPassing clouds.7 mph32%29.77 "HgN/A
4:30 PM81 °FSunny.7 mph37%29.80 "Hg10 mi
4:00 PM79 °FSunny.8 mph39%29.80 "Hg10 mi
3:30 PM79 °FPassing clouds.8 mph39%29.80 "HgN/A
3:00 PM81 °FSunny.8 mph39%29.80 "Hg10 mi
2:30 PM81 °FPassing clouds.8 mph39%29.80 "HgN/A
2:00 PM81 °FPassing clouds.8 mph34%29.83 "HgN/A
1:30 PM81 °FSunny.12 mph32%29.83 "Hg10 mi
1:00 PM82 °FSunny.14 mph32%29.83 "Hg10 mi
12:30 PM82 °FSunny.14 mph35%29.83 "Hg10 mi
12:00 PM84 °FSunny.13 mph31%29.83 "Hg10 mi
11:30 AM86 °FPassing clouds.7 mph27%29.83 "HgN/A
11:00 AM86 °FSunny.3 mph27%29.83 "Hg10 mi
10:30 AM84 °FSunny.3 mph29%29.83 "Hg10 mi
10:00 AM82 °FPassing clouds.9 mph37%29.86 "HgN/A
9:30 AM81 °FSunny.10 mph42%29.86 "Hg10 mi
9:00 AM79 °FSunny.13 mph45%29.86 "Hg10 mi
Weather by CustomWeather, © 2015

See weather overviewHow to use our weather pages